EW4052 Weather Reports


Display with metric or nautical units.
time (UTC)temp
F
wind
direction
speed
MPH
gust
MPH
rain 1hr
in
rain 24hr
in
rain mn
in
humidity
%
barometer
mb
20260508201558 72 261 13.0 22.0 0.00 0.00 0.00 30 1003.8
20260508194555 71 223 7.0 17.0 0.00 0.00 0.00 23 1004.3
20260508193114 71 212 9.0 20.0 0.00 0.00 0.00 25 1004.5
20260508191551 72 240 6.0 18.0 0.00 0.00 0.00 26 1004.8
20260508190045 70 267 2.0 11.0 0.00 0.00 0.00 30 1004.8
20260508184544 70 234 10.0 21.0 0.00 0.00 0.00 24 1005.3
20260508183042 69 221 4.0 17.0 0.00 0.00 0.00 24 1005.4
20260508181543 69 240 3.0 14.0 0.00 0.00 0.00 27 1005.7
20260508180038 69 243 6.0 17.0 0.00 0.00 0.00 25 1005.9
20260508174538 68 251 11.0 18.0 0.00 0.00 0.00 30 1006.1
20260508173032 68 250 10.0 17.0 0.00 0.00 0.00 25 1006.5
20260508171536 68 242 7.0 12.0 0.00 0.00 0.00 27 1006.7
20260508170028 68 229 9.0 17.0 0.00 0.00 0.00 22 1007.0
20260508164524 66 235 6.0 11.0 0.00 0.00 0.00 27 1007.1
20260508163021 65 240 7.0 13.0 0.00 0.00 0.00 27 1007.3
20260508161523 65 244 7.0 15.0 0.00 0.00 0.00 27 1007.6
20260508160017 64 241 7.0 14.0 0.00 0.00 0.00 29 1007.8
20260508154515 65 233 7.0 11.0 0.00 0.00 0.00 30 1007.9
20260508153012 63 230 3.0 14.0 0.00 0.00 0.00 30 1008.1
20260508151510 63 232 5.0 10.0 0.00 0.00 0.00 32 1008.3
20260508150010 61 232 0.0 6.0 0.00 0.00 0.00 35 1008.4
20260508144600 59 173 1.0 7.0 0.00 0.00 0.00 36 1008.5
20260508143107 57 203 0.0 7.0 0.00 0.00 0.00 36 1008.7
20260508141552 55 224 0.0 7.0 0.00 0.00 0.00 40 1009.1
20260508140049 53 224 0.0 5.0 0.00 0.00 0.00 43 1009.0
20260508134545 52 219 0.0 4.0 0.00 0.00 0.00 44 1009.1
20260508133042 51 215 0.0 4.0 0.00 0.00 0.00 42 1009.2
20260508131541 50 212 0.0 3.0 0.00 0.00 0.00 47 1009.3
20260508130034 48 298 0.0 0.0 0.00 0.00 0.00 52 1009.2
20260508124530 47 300 0.0 0.0 0.00 0.00 0.00 52 1009.3
20260508123029 46 300 0.0 0.0 0.00 0.00 0.00 54 1009.2
20260508121526 44 300 0.0 0.0 0.00 0.00 0.00 57 1009.0
20260508120033 42 300 0.0 0.0 0.00 0.00 0.00 56 1009.0
20260508114524 40 300 0.0 0.0 0.00 0.00 0.00 58 1008.9
20260508113023 41 300 0.0 0.0 0.00 0.00 0.00 57 1008.9
20260508111528 40 300 0.0 0.0 0.00 0.00 0.00 58 1008.8
20260508110022 41 300 0.0 0.0 0.00 0.00 0.00 56 1008.7
20260508104521 41 300 0.0 0.0 0.00 0.00 0.00 54 1008.7
20260508103025 40 300 0.0 0.0 0.00 0.00 0.00 56 1008.7
20260508101518 40 300 0.0 0.0 0.00 0.00 0.00 56 1008.9
20260508100017 40 300 0.0 0.0 0.00 0.00 0.00 56 1009.0
20260508094516 41 300 0.0 0.0 0.00 0.00 0.00 56 1009.1
20260508093015 40 300 0.0 0.0 0.00 0.00 0.00 57 1009.1
20260508091514 40 300 0.0 0.0 0.00 0.00 0.00 55 1009.0
20260508090012 41 300 0.0 0.0 0.00 0.00 0.00 53 1009.1
20260508084509 41 300 0.0 0.0 0.00 0.00 0.00 54 1009.2
20260508083007 41 300 0.0 0.0 0.00 0.00 0.00 53 1009.3
20260508081504 42 300 0.0 0.0 0.00 0.00 0.00 51 1009.5
20260508080004 43 300 0.0 0.0 0.00 0.00 0.00 50 1009.5
20260508074605 44 300 0.0 0.0 0.00 0.00 0.00 48 1009.6
20260508073058 44 300 0.0 0.0 0.00 0.00 0.00 48 1009.7
20260508071557 44 300 0.0 0.0 0.00 0.00 0.00 47 1009.8
20260508070056 45 300 0.0 0.0 0.00 0.00 0.00 47 1009.8
20260508064555 45 300 0.0 0.0 0.00 0.00 0.00 48 1009.9
20260508063059 45 300 0.0 0.0 0.00 0.00 0.00 49 1009.9
20260508061556 44 300 0.0 0.0 0.00 0.00 0.00 50 1010.0
20260508060051 44 300 0.0 0.0 0.00 0.00 0.00 51 1010.1
20260508054549 44 300 0.0 0.0 0.00 0.00 0.00 56 1010.1
20260508053056 44 300 0.0 0.0 0.00 0.00 0.00 55 1010.0
20260508051548 45 300 0.0 0.0 0.00 0.00 0.00 51 1010.0
20260508050042 46 300 0.0 0.0 0.00 0.00 0.00 52 1010.0
20260508044542 48 300 0.0 0.0 0.00 0.00 0.00 47 1009.9
20260508043049 47 300 0.0 0.0 0.00 0.00 0.00 44 1010.0
20260508041542 48 300 0.0 0.0 0.00 0.00 0.00 46 1010.0
20260508040040 48 300 0.0 0.0 0.00 0.00 0.00 48 1010.0
20260508034547 48 300 0.0 0.0 0.00 0.00 0.00 49 1010.1
20260508033039 49 300 0.0 0.0 0.00 0.00 0.00 49 1010.0
20260508031539 49 300 0.0 0.0 0.00 0.00 0.00 49 1010.0
20260508030039 50 300 0.0 0.0 0.00 0.00 0.00 52 1010.1
20260508024538 51 300 0.0 0.0 0.00 0.00 0.00 44 1010.0
20260508023037 51 300 0.0 0.0 0.00 0.00 0.00 49 1009.8
20260508021538 52 300 0.0 0.0 0.00 0.00 0.00 54 1009.7
20260508020039 53 300 0.0 0.0 0.00 0.00 0.00 49 1009.6
20260508014536 56 300 0.0 0.0 0.00 0.00 0.00 47 1009.4
20260508013037 57 300 0.0 3.0 0.00 0.00 0.00 45 1009.4
20260508011535 58 300 2.0 4.0 0.00 0.00 0.00 40 1009.2
20260508010034 59 301 2.0 6.0 0.00 0.00 0.00 41 1009.0
20260508004533 59 304 0.0 7.0 0.00 0.00 0.00 36 1008.9
20260508003033 60 285 4.0 7.0 0.00 0.00 0.00 38 1008.8
20260508001533 61 281 4.0 11.0 0.00 0.00 0.00 37 1008.8
20260508000031 62 263 6.0 11.0 0.00 0.00 0.00 35 1008.9
20260507234539 62 269 7.0 11.0 0.00 0.00 0.00 35 1009.0
20260507233030 62 303 5.0 12.0 0.00 0.00 0.00 31 1009.0
20260507231527 62 230 6.0 16.0 0.00 0.00 0.00 30 1009.1
20260507230026 62 246 6.0 17.0 0.00 0.00 0.00 34 1009.1
20260507224527 62 287 4.0 13.0 0.00 0.00 0.00 33 1009.2
20260507223024 63 241 9.0 14.0 0.00 0.00 0.00 34 1009.3
20260507221523 63 252 9.0 18.0 0.00 0.00 0.00 34 1009.2
20260507220021 62 257 4.0 10.0 0.00 0.00 0.00 35 1009.4
20260507214524 62 238 5.0 16.0 0.00 0.00 0.00 28 1009.5
20260507213020 62 225 2.0 9.0 0.00 0.00 0.00 28 1009.6
20260507211517 62 244 4.0 15.0 0.00 0.00 0.00 29 1009.5
20260507210016 62 265 7.0 16.0 0.00 0.00 0.00 31 1009.6
20260507204514 62 244 10.0 17.0 0.00 0.00 0.00 30 1009.7